This demonstration page uses our WeatherBlox Daily Observations layout. Learn more.

Left ArrowRight Arrow

Hourly Observations for July 5, 2022

Temp ( °F °C ) Dew Point ( °F °C ) Humidity (%) Winds ( mph kmh ) Pressure ( in mb ) Visibility ( mi km ) Precip ( " mm )
12:51 am 00:51 Clear 77 25 60 15.6 56 56 ESE 6 9 29.81 1009 10 16 0.00 0.00
1:51 am 01:51 Clear 76 24.4 60 15.6 58 58 E 8 13 29.80 1009 10 16 0.00 0.00
2:51 am 02:51 Clear 76 24.4 59 15 56 56 ESE 8 13 29.81 1009 10 16 0.00 0.00
3:51 am 03:51 Mostly Clear 76 24.4 60 15.6 58 58 ESE 9 15 29.83 1010 10 16 0.00 0.00
4:51 am 04:51 Mostly Clear 75 23.9 60 15.6 60 60 ESE 3 6 29.84 1011 10 16 0.00 0.00
5:51 am 05:51 Sunny 75 23.9 60 15.6 60 60 ESE 3 6 29.85 1011 10 16 0.00 0.00
6:51 am 06:51 Sunny 79 26.1 62 16.7 56 56 E 10 17 29.87 1011 10 16 0.00 0.00
7:51 am 07:51 Sunny 81 27.2 63 17.2 54 54 VRB 6 9 29.87 1012 10 16 0.00 0.00
8:51 am 08:51 Sunny 84 28.9 63 17.2 49 49 ESE 7 11 29.85 1011 10 16 0.00 0.00
9:51 am 09:51 Sunny 86 30 63 17.2 46 46 SE 5 7 29.84 1011 10 16 0.00 0.00
10:51 am 10:51 Sunny 90 32.2 62 16.7 39 39 VRB 7 11 29.83 1010 10 16 0.00 0.00
11:51 am 11:51 Sunny 91 32.8 60 15.6 35 35 E 8 13 29.81 1009 10 16 0.00 0.00
12:51 pm 12:51 Mostly Cloudy 92 33.3 57 13.9 31 31 SSE 8 13 29.79 1009 10 16 0.00 0.00
1:19 pm 13:19 Sunny 97 36.1 50 10 20 20 SW 14 22 29.65 1004 10 16 0.00 0.00
1:51 pm 13:51 Sunny 96 35.6 50 10 21 21 undefined N/A 29.76 1008 10 16 0.00 0.00
2:51 pm 14:51 Mostly Sunny 98 36.7 47 8.3 17 17 S 12 19 29.73 1007 10 16 0.00 0.00
3:51 pm 15:51 Mostly Sunny 97 36.1 49 9.4 20 20 W 9 15 29.70 1006 10 16 0.00 0.00
4:51 pm 16:51 Mostly Cloudy 97 36.1 49 9.4 20 20 SSW 13 20 29.70 1006 10 16 0.00 0.00
5:51 pm 17:51 Mostly Sunny 96 35.6 54 12.2 24 24 WNW 18 30 29.69 1006 10 16 0.00 0.00
6:51 pm 18:51 Sunny 92 33.3 54 12.2 28 28 WNW 16 26 29.71 1006 10 16 0.00 0.00
7:51 pm 19:51 Clear 89 31.7 56 13.3 33 33 WNW 14 22 29.73 1007 10 16 0.00 0.00
8:51 pm 20:51 Clear 87 30.6 55 12.8 34 34 NNW 10 17 29.75 1008 10 16 0.00 0.00
9:51 pm 21:51 Clear 86 30 56 13.3 36 36 NNW 10 17 29.78 1008 10 16 0.00 0.00
10:51 pm 22:51 Mostly Clear 81 27.2 58 14.4 45 45 W 6 9 29.79 1009 10 16 0.00 0.00
11:51 pm 23:51 Clear 78 25.6 58 14.4 50 50 WNW 5 7 29.79 1009 10 16 0.00 0.00

Powered by AerisWeather